Montana Department of Transportation

Main Content

Accidents and Incidents Report

Hourly Weather Roundup

ASUS45 KTFX 220904
RWRMT 
MONTANA HOURLY WEATHER ROUNDUP
NATIONAL WEATHER SERVICE GREAT FALLS MT
204 AM MST MON DEC 22 2014

NOTE: "FAIR" INDICATES FEW OR NO CLOUDS BELOW 12000 FEET WITH NO
SIGNIFICANT WEATHER AND/OR OBSTRUCTIONS TO VISIBILITY.

* THESE STATIONS ARE NOT UNDER NWS QUALITY CONTROL. THEY DO NOT
   REPORT WEATHER SUCH AS PRECIPITATION OR FOG.

MTZ001.007-043-221000-
WEST OF THE DIVIDE
CITY           SKY/WX    TMP DP  RH WIND       PRES   REMARKS
KALISPELL      LGT RAIN  34  30  85 NW5       29.84R WCI  29 
MISSOULA       MOCLDY    36  30  79 N8        29.90R WCI  30 
BUTTE          LGT SNOW  28  27  96 VRB6      29.82R VSB 3/4  WCI  21 
MULLAN PASS    FOG       27  27 100 VRB5      29.87R VSB 1/2  WCI  21 
* ESSEX        N/A       32  31  96 N/A        N/A   
* LINCOLN      N/A       31  30  96 S3         N/A   
* LOOKOUT PASS N/A       32  29  89 NE7        N/A   WCI  25 
* POLSON       N/A       35  29  79 SW2        N/A   
* RONAN APT    MOCLDY    37  30  76 N/A        N/A   
* SEELEY LAKE  N/A       32  31  96 NW2        N/A   
* THOMP F APT  PTCLDY    26  20  78 N6         N/A   WCI  19 
--------------------------------

MTZ008-052.055-221000-
SOUTHWEST MONTANA
CITY           SKY/WX    TMP DP  RH WIND       PRES   REMARKS
BOZEMAN        CLOUDY    36  25  64 W8        29.80S WCI  30 
DILLON         CLOUDY    34  25  70 SW13      29.83S WCI  25 
* W YELLOWSTON CLOUDY    26  22  85 SW3G15     N/A   
* THREE FORKS  CLOUDY    37  36  96 N/A        N/A   
* BOULDER HILL N/A       29  23  78 SW4        N/A   
* MONIDA PASS  N/A       25  18  75 SW1        N/A   
* RAYNOLDS PAS N/A       26  17  69 SW6        N/A   WCI  19 
* WHITEHALL    N/A       35  28  76 W7G14      N/A   WCI  29 
* WISE RIVER   N/A       30  26  85 W6G11      N/A   WCI  24 
--------------------------------

MTZ009.010-012-014-046-048-049-054-221000-
EAST SLOPES AND CENTRAL MONTANA
CITY           SKY/WX    TMP DP  RH WIND       PRES   REMARKS
CUT BANK       CLEAR     28  21  75 W13       29.70R WCI  17 
GREAT FALLS    PTCLDY    32  25  75 SW13      29.72R WCI  22 
HELENA         CLOUDY    39  27  62 W15       29.78R WCI  31 
* DEARBORN     N/A       32  25  75 SE1        N/A   
* EAST GLACIER N/A       33  16  50 NW18G30    N/A   WCI  22 
* MONARCH      N/A       31  13  47 W19G25     N/A   WCI  19 
* PENDROY      N/A       34  19  54 NW16G23    N/A   WCI  24 
* ROGERS PASS  N/A       29  26  89 SE9        N/A   WCI  21 
* SWEET GRASS  N/A       30  19  64 NW12G17    N/A   WCI  20 
--------------------------------

MTZ011-013-016-021-035-040-045-047-050-051-221000-
NORTH CENTRAL MONTANA
CITY           SKY/WX    TMP DP  RH WIND       PRES   REMARKS
HAVRE          PTCLDY    30  27  89 SW13      29.68R WCI  20 
LEWISTOWN      CLOUDY    36  25  64 W7        29.69R WCI  30 
* N BAR RANCH  MOCLDY    32  23  69 NW15G25   29.67R WCI  22 
* CHESTER      N/A       30  24  78 NE3        N/A   
* DENTON       N/A       34  22  61 NW4        N/A   
* GEYSER       N/A       33  18  54 W15        N/A   WCI  23 
* JUDITH GAP   N/A       34  17  50 NW13G20    N/A   WCI  25 
* LOMA         N/A       31  24  75 W2         N/A   
--------------------------------

MTZ017.020-022.027-061-062-221000-
NORTHEAST MONTANA
CITY           SKY/WX    TMP DP  RH WIND       PRES   REMARKS
GLASGOW        LGT SNOW  34  27  76 NW24G33   29.54R WCI  22 
GLENDIVE       CLOUDY    36  30  79 W22G30    29.51R WCI  25 
JORDAN         MOCLDY    36  28  73 W15       29.59R WCI  27 
SIDNEY         CLOUDY    34  30  85 W16       29.48R WCI  24 
WOLF POINT     LGT SNOW  34  28  79 NW7       29.53R WCI  28 
* BEAVER HILL  N/A       32  31  96 W13G23     N/A   WCI  22 
* CIRCLE       N/A       35  31  85 W8G21      N/A   WCI  28 
* LINDSAY DVD  N/A       33  30  89 W29G39     N/A   WCI  19 
* SACO         N/A       33  28  82 W14        N/A   WCI  23 
--------------------------------

MTZ028.042-056.058-221000-
SOUTHCENTRAL AND SOUTHEAST MONTANA
CITY           SKY/WX    TMPDP  RH WIND       PRES   REMARKS
BAKER          CLOUDY    36 N/A N/A W21G29    29.50R WCI  25 
BILLINGS       CLEAR     37  19  48 W23       29.70R WCI  26 
LIVINGSTON     CLOUDY    37  23  57 W32G39    29.72F WCI  24 
MILES CITY     MOCLDY    39  27  62 W23G31    29.56R WCI  28 
* LAUREL APT   CLEAR     39  16  39 W14G23     N/A   WCI  31 
* ROUNDUP APT  PTCLDY    34  19  54 N/A        N/A   
* ALZADA       N/A       35  31  85 W15        N/A   WCI  25 
* HYSHAM       N/A       36  21  54 W6G12      N/A   WCI  31 
* LAME DEER    N/A       35  23  62 W17G24     N/A   WCI  25 
* REED POINT   N/A       38  20  48 W9         N/A   WCI  32 
* ROSCOE HILL  N/A       35   8  32 SW6G14     N/A   WCI  30 
--------------------------------

REGIONAL REPORTS...DAKOTAS
CITY           SKY/WX    TMP DP  RH WIND       PRES   REMARKS
WILLISTON      LGT RAIN  34  30  85 NW10      29.43R WCI  26 
DICKINSON      FOG       36  32  85 W18       29.40R WCI  26 
BEACH          LGT RAIN  32  32 100 NW24G30   29.47R WCI  19 
CROSBY         MOCLDY    27  27 100 NW7       29.43R WCI  19 
WATFORD CITY   LGT SNOW  32  32 100 W6        29.41R WCI  26 
BISMARCK       FOG       28  28 100 SE5       29.45R VSB 2    WCI  22 
GRAND FORKS    FOG       34  34 100 SE7       29.53S WCI  28 
FARGO          FOG       37  36  96 SE14      29.51F WCI  28 
BUFFALO SD     PTCLDY    37  32  82 W23       29.42R WCI  26 
RAPID CITY     CLOUDY    39  28  65 NW24G31   29.52R WCI  28 
--------------------------------

REGIONAL REPORTS...WYOMING/IDAHO/WASHINGTON
CITY           SKY/WX    TMP DP  RH WIND       PRES   REMARKS
GILLETTE       PTCLDY    30  27  89 W14       29.65R WCI  19 
SHERIDAN       PTCLDY    37  19  48 NW21      29.68R WCI  26 
CODY           MOCLDY    36  18  48 W6        29.74S WCI  31 
YELLOWSTONE LA MOCLDY    21  18  88 W12G18    29.80S WCI   9 
SALMON         CLOUDY    34  28  79 CALM      29.91S 
MULLAN PASS    FOG       27  27 100 VRB5      29.87S VSB 1/2  WCI  21 
SAND POINT     PTCLDY    37  32  82 SW5       29.92R WCI  33 
SPOKANE        MOCLDY    37  32  82 SW13      29.96S WCI  29 
--------------------------------

REGIONAL REPORTS...SASKATCHEWAN
CITY           SKY/WX    TMP DP  RH WIND       PRES   REMARKS
SWIFT CURRENT  LGT SNOW  19  19 100 NW18      29.54R WCI   4 
REGINA         CLOUDY    25  23  92 N7        29.50R WCI  17 

--------------------------------